Regional Weather Roundup
Issued by NWS Newport/Morehead, NC

Current Version | Previous Version | Text Only | Print | Product List | Glossary On
Versions: 1 2 3 4 5 6 7 8 9 10 11 12 13 14 15 16 17 18 19 20 21 22 23 24 25 26 27 28 29 30 31 32 33 34 35 36 37 38 39 40 41 42 43 44 45 46 47 48 49 50
000 ASUS42 KMHX 230825 RWRMHX WEATHER ROUNDUP FOR EASTERN NORTH CAROLINA NATIONAL WEATHER SERVICE NEWPORT/MOREHEAD CITY NC 400 AM EDT SUN APR 23 2017 NOTE: "FAIR" INDICATES FEW OR NO CLOUDS BELOW 12,000 FEET WITH NO SIGNIFICANT WEATHER AND/OR OBSTRUCTIONS TO VISIBILITY NCZ015>017-031-032-045>047-102-103-230900- NORTH COAST CITY SKY/WX TMP DP RH WIND PRES REMARKS EDENTON RAIN 56 53 89 CALM 29.99R ELIZABETH CITY CLOUDY 55 54 96 N12 29.98R KITTY HAWK CLOUDY 55 55 100 N8G18 29.94S MANTEO CLOUDY 55 53 92 NE20G25 29.96R $$ NCZ045>047-081-094-103-104-230900- CENTRAL COAST CITY SKY/WX TMP DP RH WIND PRES REMARKS FRISCO CLOUDY 62 59 90 N10 29.91R $$ NCZ095-097-098-100-101-230900- SOUTHERN COAST CITY SKY/WX TMP DP RH WIND PRES REMARKS BEAUFORT CLOUDY 62 62 100 N7 29.91R CEDAR ISLAND NOT AVBL JACKSONVILLE CLOUDY 62 60 93 NE12 29.91R PINEY ISLAND CLOUDY N/A N/A N/A N10 29.91S WILMINGTON CLOUDY 69 66 90 N3 29.89S $$ NCZ011>013-027>030-043-044-078>080-089-090>093-098-230900- COASTAL PLAIN CITY SKY/WX TMP DP RH WIND PRES REMARKS AHOSKIE HVY RAIN 55 54 97 N3 30.00R CLINTON CLOUDY 59 58 96 NE8 29.94R ELIZABETHTOWN MOCLDY 63 61 94 CALM 29.91R GOLDSBORO CLOUDY 57 57 100 NE12 29.94R GREENVILLE HVY RAIN 54 54 100 NE7 29.99R HAVELOCK NOT AVBL KENANSVILLE CLOUDY 57 55 94 NE8 29.94R KINSTON CLOUDY 56 55 94 N12 29.96S NEW BERN CLOUDY 59 58 96 N7 29.94S RICHLANDS CLOUDY 59 58 96 N8 29.93R ROCKY MOUNT LGT RAIN 56 55 97 NE7 29.97F WASHINGTON LGT RAIN 54 53 97 N8 29.96R WHITEVILLE CLOUDY 67 63 87 CALM 29.88S $$ AMZ130-135-150-152-154-156-158-170-250-252-270-ANZ085-086-088-633-658-670-230900- MARINE OBSERVATIONS STATION/POSITION TIME TEMP WIND PRES WAVE SWELL AIR SEA DIR/SP/G HT/PER HT/PER (UTC) (F) (DEG/KT/KT) (MB) (FT/S) (FT/S) CHESAPEAKE LIGHT NOT AVBL 64 E VA BEACH 0750 54 56 10/ 19/ 23 1013.7 6/11 3/11 DUCK 0800 56 62 20/ 22/ 26 1013.8 2 E DUCK 0800 60 N/A 6/ 5 2/11 OREGON INLET 0800 56 72 10/ 12/ 19 1013.7 13E OREGON INLT 0748 59 N/A 6/ 7 5/ 7 HATTERAS CG 0800 62 71 10/ 11/ 19 1012.7 DIAMOND BUOY 0750 64 75 350/ 12/ 16 1011.9 4/12 3/12 CAPE LOOKOUT 0800 64 350/ 11/ 13 1012.1 BEAUFORT LAB 0800 62 67 360/ 11/ 12 1011.9 30 SE NEW RVR IN 0808 70 290/ 2/ 4 1012.1 30 SE NEW RVR IN 0813 71 N/A 5/ 6 2/13 27 SE WRIGHTSVLE 0808 71 70 250/ 6/ 10 1011.3 5 SE WRIGHTSVLE 0808 70 68 280/ 2/ 4 1011.7 225 S CAPE HAT 0750 72 76 200/ 14/ 16 1014.3 5/13 3/13 41 SE CHARLESTON 0800 75 74 200/ 16/ 19 1011.5 $$

USA.gov is the U.S. government's official web portal to all federal, state and local government web resources and services.